Location: Hastringsfeld
(50.9620°N, 10.4787°E)
Time: 13:13:14
(UTC+00:00)

USA 215 - Pass Details

Date: 26 September 2023
Orbit: 1098 x 1109 km, 123.0° (Epoch: 17 November)

Event Time Altitude Azimuth Distance (km) Brightness Sun altitude
Rises 03:25:13 0° 165° (SSE) 3,898 6.1 -17.0°
Reaches altitude 10° 03:28:10 10° 178° (S) 2,945 5.3 -16.6°
Maximum altitude 03:33:25 26° 232° (SW) 2,025 4.1 -15.8°
Enters shadow 03:35:44 21° 263° (W) 2,240 4.3 -15.4°
